465  
ASUS44 KMOB 251913  
RWRMOB  
REGIONAL WEATHER ROUNDUP  
NATIONAL WEATHER SERVICE MOBILE AL  
100 PM CST SAT JAN 25 2020  
 
NOTE: "FAIR" INDICATES FEW OR NO CLOUDS BELOW 12,000 FEET WITH NO  
SIGNIFICANT WEATHER AND/OR S TO VISIBILITY
.  
 
* THESE STATIONS ARE PART OF THE UNIVERSITY OF SOUTH ALABAMA  
MESONET AND ARE NOT UNDER NWS OR FAA QUALITY CONTROL.
 
 
ALZ061>064-252000-  
COASTAL ALABAMA  
 
CITY SKY/WX TMP DP RH WIND PRES REMARKS
 
MOBILE REG APT FAIR 58 32 37 W7 30.15F  
BROOKLEY FIELD FAIR 57 41 55 SE7 30.16F  
USA CAMPUS* NOT AVBL  
DOG RIVER* NOT AVBL  
 
 
CITY SKY/WX TMP DP RH WIND PRES REMARKS
 
GULF SHORES FAIR 58 35 41 N7G16 30.15F  
 

 
 
ALZ051>060-252000-  
INTERIOR SOUTHWEST AND SOUTH CENTRAL ALABAMA  
 
CITY SKY/WX TMP DP RH WIND PRES REMARKS
 
GREENVILLE NOT AVBL  
EVERGREEN FAIR 57 34 41 NW8 30.14F  
ATMORE* NOT AVBL  
ANDALUSIA/OPP FAIR 58 36 43 NW12 30.13F  
ANDALUSIA* NOT AVBL  
FLORALA APT FAIR 56 35 45 VRB5 30.15F  
FLORALA* NOT AVBL  
 

 
 
FLZ001>006-252000-  
WESTERN FLORIDA PANHANDLE  
 
CITY SKY/WX TMP DP RH WIND PRES REMARKS
 
PENSACOLA FAIR 60 35 39 VRB7G16 30.13F  
NAS PENSACOLA FAIR 61 38 42 NW8 30.13F  
MILTON FAIR 57 37 47 VRB7 30.14F  
WHTNG S FIELD NOT AVBL  
 
 
CITY SKY/WX TMP DP RH WIND PRES REMARKS
 
JAY* NOT AVBL  
DUKE FIELD FAIR 57 35 44 NW12 30.13F  
CRESTVIEW FAIR 57 35 43 N10 30.15F  
VALPARAISO FAIR 57 35 43 NW7 30.12F  
DESTIN FAIR 55 40 56 VRB5 30.14F  
 

 
 
MSZ076-079-252000-  
INTERIOR SOUTHEAST MISSISSIPPI  
 
CITY SKY/WX TMP DP RH WIND PRES REMARKS
 
LEAKESVILLE* NOT AVBL  
AGRICOLA* NOT AVBL  
 

 
 
MARINE OBSERVATIONS  
 
STATION/POSITION TIME TEMP WIND PRES WAVE
 
AIR SEA DIR/SP/G HT/PER  
(UTC) (F) (DEG/KT/KT) (MB) (FT/S)  
PETIT BOIS ISLND 1818 51 250/ 7/ 8 1022.1  
GRAND BAY 1745 53 170/ 4 1024.0F  
KATRINA CUT 1830 51 250/ 6 1022.0F  
CEDAR POINT 1830 52 150/ 4 1021.7F  
E DAUPHIN ISLAND 1900 50 130/ 5/ 6 1021.2F  
USCG MOBILE BAY 1818 59 54 130/ 6/ 8 1022.0  
STATE DOCKS 1818 59 53 1021.8  
MEAHER PARK 1830 55 310/ 6 1022.0F  
WEEKS BAY 1745 55 1023.0F  
FORT MORGAN 1824 51 290/ 3/ 5 1021.7  
12 S ORANGE BCH 1850 51 62 260/ 6/ 8 1021.7F 1  
PENSACOLA BAY 1824 53 160/ 4/ 5 1021.4  
64 S DAUPHIN ISL 1850 56 68 340/ 8/ 10 1022.4F 2/ 4  
 

 
 
SELECTED LOCATIONS ACROSS THE REGION  
 
CITY SKY/WX TMP DP RH WIND PRES REMARKS
 
NEW ORLEANS PTSUNNY 60 35 39 NE10 30.18F  
GULFPORT FAIR 61 33 35 NW9 30.16F  
PASCAGOULA AP FAIR 64 34 32 NW8 30.15F  
PASCAGOULA* NOT AVBL  
HATTIESBURG NOT AVBL  
LAUREL FAIR 58 35 42 NW8 30.17F  
MERIDIAN FAIR 55 34 45 NW7 30.16F  
JACKSON FAIR 55 34 45 W3 30.17F  
MONTGOMERY FAIR 54 36 50 NW10 30.13F  
TROY FAIR 54 35 48 W9 30.12F  
ASHFORD* NOT AVBL  
DOTHAN FAIR 56 36 47 NW12 30.14F  
PANAMA CITY FAIR 58 36 43 W9 30.12F  
 

 
 
 
 
CLICK HERE TO GO TO PREVIOUS BULLETINS.

The Nexlab AL Page
The Nexlab FL Page
The Nexlab MS Page Main Text Page